World > North America > United States > Iowa > Hazel Green  

Hazel Green, IA Hourly Weather Updates

Feedback E-mail the Weather

Quick Clicks

Hazel Green, IA Weather Maps

°F °C°F °C
Hazel Green Weather Map
UTC Time: 7/22/2024, 10:21
Your Time:

Hazel Green, IA Regional Weather

Expires:202407221100;;094563
ASUS43 KDMX 221006
RWRIA 

WEATHER ROUNDUP FOR IOWA
NATIONAL WEATHER SERVICE DES MOINES IA
500 AM CDT MON JUL 22 2024

NOTE: "FAIR" INDICATES FEW OR NO CLOUDS BELOW 12,000 FEET WITH NO
SIGNIFICANT WEATHER AND/OR OBSTRUCTIONS TO VISIBILITY.

* - THESE STATIONS ARE NOT NWS STATIONS...THUS NOT UNDER NWS
QUALITY CONTROL.  THEY ALSO DO NOT REPORT WEATHER SUCH 
AS PRECIPITATION OR FOG.  


IAZ007>011-017>019-026>030-037>042-050>054-066-221100-
   NORTHEAST IOWA
  
CITY           SKY/WX    TMP DP  RH WIND       PRES   REMARKS
CEDAR RAPIDS   PTCLDY    62  62 100 W3        30.06S FOG     TC  17   
CHARLES CITY * PTCLDY    61  61 100 N5        30.08S TC  16           
CLINTON *      CLEAR    N/A N/A N/A NE5       30.05F                  
DECORAH *      MOCLDY    63  63 100 NW5       30.07S TC  17           
DUBUQUE        PTCLDY    64  64 100 CALM      30.06F TC  18           
MONTICELLO *   CLOUDY    63  63 100 CALM      30.05S FOG     TC  17   
OELWEIN *      CLOUDY    63  63 100 CALM      30.08R TC  17           
WATERLOO       CLOUDY    65  63  93 CALM      30.06S TC  18           
$$
 

SKY/WX - Weather  TMP - Temperature  DP - Dew Point  RH - Humidity
WIND - Wind Direction/Speed PRES - Barometric Pressure VSB - Visibility
WCI - Wind Chill Index E13G22 Wind - East Wind 13 mph/Gusts of 22 mph

Trending Headlines

Trending Entertainment Headlines

Hazel Green Radar Loop

Use the map search tool if you want to place a location marker on the radar map...

Hazel Green Quick Facts

National Two Day Weather Forecast


E-mail the Hazel Green Weather Forecast

Voice your opinion or tell us about page issues...